Weather History for McCook, NE

Change the Weather History Date:

Tuesday, January 7, 2014

  Actual Average Record
Temperature  
Mean Temperature 32 °F 27 °F  
Max Temperature 50 °F 40 °F 67 °F (1965)
Min Temperature 14 °F 14 °F -18 °F (1912)
Degree Days  
Heating Degree Days 32    
Moisture  
Dew Point 14 °F    
Average Humidity 53    
Maximum Humidity 70    
Minimum Humidity 25    
Precipitation  
Precipitation 0.00 in 0.02 in 0.03 in (1988)
Month to date precipitation 0.01 0.12  
Year to date precipitation 0.01 0.12  
Sea Level Pressure  
Sea Level Pressure 30.12 in    
Wind  
Wind Speed 10 mph (West)    
Max Wind Speed 17 mph    
Max Gust Speed -    
Visibility 10 miles    
Events      
T = Trace of Precipitation, MM = Missing Value Source: NWS Daily Summary

Daily Weather History Graph

Daily Weather History Graph

Search for Another Location

Airport:

Trip Planner

Search our weather history database for the weather conditions in past years. The results will help you decide how hot, cold, wet, or windy it might be!

Date:

Astronomy

Jan. 07, 2014 Rise Set
Actual Time 8:04 AM CST 5:32 PM CST
Civil Twilight 7:34 AM CST 6:03 PM CST
Nautical Twilight 7:00 AM CST 6:36 PM CST
Astronomical Twilight 6:27 AM CST 7:09 PM CST
Moon 11:54 AM CST (1/7) 12:07 AM CST (1/7)
Length of Visible Light 10h 28m
Length of Day
9h 27m
Waxing Crescent, 46% of the Moon is Illuminated
Jan 7
Waxing Crescent
Jan 7
First Quarter
Jan 15
Full
Jan 23
Last Quarter
Jan 30
New

Hourly Weather History & Observations

Time (CST) Temp. Windchill Dew Point Humidity Pressure Visibility Wind Dir Wind Speed Gust Speed Precip Events Conditions
12:53 AM 17.1 °F 5.8 °F 7.0 °F 65% 30.22 in 10.0 mi West 9.2 mph - N/A   Scattered Clouds
1:53 AM 19.0 °F 7.5 °F 7.0 °F 59% 30.17 in 10.0 mi WSW 10.4 mph - N/A   Clear
2:53 AM 21.9 °F 10.4 °F 9.0 °F 58% 30.15 in 10.0 mi WSW 11.5 mph - N/A   Clear
3:53 AM 19.9 °F 6.7 °F 8.1 °F 60% 30.15 in 10.0 mi West 13.8 mph - N/A   Clear
4:53 AM 17.1 °F 3.6 °F 8.1 °F 68% 30.14 in 10.0 mi WSW 12.7 mph - N/A   Clear
5:53 AM 18.0 °F 2.6 °F 8.1 °F 65% 30.14 in 10.0 mi West 17.3 mph - N/A   Clear
6:53 AM 16.0 °F 0.6 °F 7.0 °F 68% 30.16 in 10.0 mi West 16.1 mph - N/A   Clear
7:53 AM 15.1 °F 0.5 °F 7.0 °F 70% 30.17 in 10.0 mi West 13.8 mph - N/A   Clear
8:53 AM 18.0 °F 3.6 °F 9.0 °F 68% 30.16 in 10.0 mi West 15.0 mph - N/A   Clear
9:53 AM 25.0 °F 13.6 °F 12.0 °F 58% 30.16 in 10.0 mi West 12.7 mph - N/A   Clear
10:53 AM 32.0 °F 28.7 °F 16.0 °F 52% 30.16 in 10.0 mi West 3.5 mph - N/A   Unknown
11:53 AM 41.0 °F 36.4 °F 19.0 °F 41% 30.12 in 4.0 mi WSW 6.9 mph - N/A   Haze
12:53 PM - - - N/A% 30.00 in 10.0 mi North - - N/A   Clear
1:53 PM 48.9 °F - 16.0 °F 27% 30.04 in 10.0 mi WNW 3.5 mph - N/A   Clear
2:53 PM 50.0 °F - 15.1 °F 25% 30.02 in 10.0 mi Calm Calm - N/A   Clear
3:53 PM 46.9 °F - 19.0 °F 33% 30.04 in 10.0 mi East 4.6 mph - N/A   Clear
4:53 PM 43.0 °F 38.2 °F 19.9 °F 40% 30.05 in 10.0 mi ESE 8.1 mph - N/A   Clear
5:53 PM 37.9 °F 34.4 °F 17.1 °F 43% 30.07 in 10.0 mi East 4.6 mph - N/A   Clear
6:53 PM 37.0 °F 32.4 °F 17.1 °F 44% 30.09 in 10.0 mi ENE 5.8 mph - N/A   Partly Cloudy
7:53 PM 35.1 °F 30.1 °F 18.0 °F 50% 30.11 in 10.0 mi East 5.8 mph - N/A   Clear
8:53 PM 34.0 °F 27.2 °F 18.0 °F 52% 30.12 in 10.0 mi ENE 8.1 mph - N/A   Partly Cloudy
9:53 PM 34.0 °F 27.2 °F 17.1 °F 50% 30.12 in 10.0 mi East 8.1 mph - N/A   Mostly Cloudy
10:53 PM 33.1 °F 23.4 °F 19.0 °F 56% 30.13 in 10.0 mi ENE 13.8 mph - N/A   Partly Cloudy
11:53 PM 30.9 °F 21.2 °F 19.0 °F 61% 30.13 in 10.0 mi East 12.7 mph - N/A   Overcast